Hourly Weather Luebo

Today, 20 June, Sunday

Time Temperature Precipitation Wind Pressure Humidity
00:00 +20°C° 0 mm 0 mps 718 mmHg 48%
01:00 +19°C° 0 mm 0 mps 717 mmHg 50%
02:00 +19°C° 0 mm 0 mps 717 mmHg 51%
03:00 +19°C° 0 mm 0 mps 717 mmHg 52%
04:00 +18°C° 0 mm 0 mps 717 mmHg 54%
05:00 +19°C° 0 mm 0 mps 718 mmHg 52%
06:00 +20°C° 0 mm 0 mps 718 mmHg 50%
07:00 +21°C° 0 mm 0 mps 719 mmHg 49%
08:00 +25°C° 0 mm 0 mps 719 mmHg 41%
09:00 +30°C° 0 mm 1 mps 720 mmHg 33%
10:00 +34°C° 0 mm 1 mps 720 mmHg 25%
11:00 +35°C° 0 mm 1 mps 719 mmHg 24%
12:00 +36°C° 0 mm 1 mps 718 mmHg 22%
13:00 +39°C° 0 mm 1 mps 718 mmHg 20%
14:00 +37°C° 0 mm 1 mps 717 mmHg 21%
15:00 +37°C° 0 mm 1 mps 717 mmHg 21%
16:00 +34°C° 0 mm 0 mps 716 mmHg 22%
17:00 +32°C° 0 mm 0 mps 717 mmHg 27%
18:00 +29°C° 0 mm 0 mps 717 mmHg 33%
19:00 +26°C° 0 mm 0 mps 717 mmHg 38%
20:00 +25°C° 0 mm 0 mps 717 mmHg 40%
21:00 +24°C° 0 mm 0 mps 717 mmHg 42%
22:00 +24°C° 0 mm 0 mps 718 mmHg 44%
23:00 +23°C° 0 mm 0 mps 717 mmHg 46%

Tomorrow, 21 June, Monday

Time Temperature Precipitation Wind Pressure Humidity
00:00 +22°C° 0 mm 0 mps 717 mmHg 48%
01:00 +22°C° 0 mm 0 mps 717 mmHg 49%
02:00 +21°C° 0 mm 0 mps 717 mmHg 50%
03:00 +21°C° 0 mm 0 mps 717 mmHg 51%
04:00 +21°C° 0 mm 0 mps 717 mmHg 51%
05:00 +22°C° 0 mm 0 mps 717 mmHg 50%
06:00 +22°C° 0 mm 0 mps 718 mmHg 49%
07:00 +23°C° 0 mm 0 mps 718 mmHg 48%
08:00 +28°C° 0 mm 1 mps 719 mmHg 41%
09:00 +30°C° 0 mm 1 mps 719 mmHg 34%
10:00 +34°C° 0 mm 2 mps 719 mmHg 28%
11:00 +35°C° 0 mm 2 mps 718 mmHg 26%
12:00 +35°C° 0 mm 1 mps 718 mmHg 24%
13:00 +36°C° 0 mm 1 mps 717 mmHg 23%
14:00 +36°C° 0 mm 1 mps 716 mmHg 22%
15:00 +36°C° 0 mm 1 mps 716 mmHg 22%
16:00 +36°C° 0 mm 1 mps 716 mmHg 22%
17:00 +32°C° 0 mm 0 mps 716 mmHg 27%
18:00 +29°C° 0 mm 0 mps 716 mmHg 33%
19:00 +26°C° 0 mm 0 mps 716 mmHg 38%
20:00 +25°C° 0 mm 0 mps 716 mmHg 40%
21:00 +25°C° 0 mm 0 mps 716 mmHg 42%
22:00 +24°C° 0 mm 0 mps 717 mmHg 45%
23:00 +23°C° 0 mm 0 mps 716 mmHg 47%

Day after tomorrow, 22 June, Tuesday

Time Temperature Precipitation Wind Pressure Humidity
00:00 +22°C° 0 mm 0 mps 716 mmHg 50%
01:00 +21°C° 0 mm 0 mps 716 mmHg 52%
02:00 +22°C° 0 mm 0 mps 716 mmHg 51%
03:00 +22°C° 0 mm 0 mps 716 mmHg 51%
04:00 +24°C° 0 mm 1 mps 717 mmHg 50%
05:00 +25°C° 0 mm 1 mps 717 mmHg 49%
06:00 +25°C° 0 mm 1 mps 717 mmHg 48%
07:00 +26°C° 0 mm 1 mps 718 mmHg 47%
08:00 +28°C° 0 mm 1 mps 718 mmHg 41%
09:00 +30°C° 0 mm 1 mps 718 mmHg 35%
10:00 +32°C° 0 mm 1 mps 719 mmHg 29%
11:00 +34°C° 0 mm 1 mps 718 mmHg 26%
12:00 +36°C° 0 mm 1 mps 717 mmHg 23%
13:00 +39°C° 0 mm 1 mps 716 mmHg 20%
14:00 +36°C° 0 mm 0 mps 716 mmHg 20%
15:00 +35°C° 0 mm 0 mps 715 mmHg 21%
16:00 +35°C° 0 mm 0 mps 715 mmHg 21%
17:00 +32°C° 0 mm 0 mps 715 mmHg 27%
18:00 +29°C° 0 mm 0 mps 716 mmHg 32%
19:00 +26°C° 0 mm 0 mps 716 mmHg 37%
20:00 +26°C° 0 mm 0 mps 716 mmHg 38%
21:00 +25°C° 0 mm 0 mps 716 mmHg 40%
22:00 +25°C° 0 mm 0 mps 716 mmHg 41%
23:00 +24°C° 0 mm 0 mps 716 mmHg 42%

23 June, Wednesday

Time Temperature Precipitation Wind Pressure Humidity
00:00 +23°C° 0 mm 0 mps 716 mmHg 44%
01:00 +23°C° 0 mm 0 mps 716 mmHg 45%
02:00 +22°C° 0 mm 0 mps 716 mmHg 46%
03:00 +22°C° 0 mm 0 mps 716 mmHg 47%
04:00 +24°C° 0 mm 1 mps 716 mmHg 48%
05:00 +22°C° 0 mm 0 mps 717 mmHg 48%
06:00 +22°C° 0 mm 0 mps 717 mmHg 48%
07:00 +22°C° 0 mm 0 mps 718 mmHg 49%
08:00 +24°C° 0 mm 0 mps 718 mmHg 46%
09:00 +25°C° 0 mm 0 mps 718 mmHg 43%
10:00 +27°C° 0 mm 0 mps 719 mmHg 40%
11:00 +29°C° 0 mm 0 mps 718 mmHg 35%
12:00 +33°C° 0 mm 1 mps 717 mmHg 30%
13:00 +34°C° 0 mm 1 mps 717 mmHg 25%
14:00 +35°C° 0 mm 1 mps 716 mmHg 24%
15:00 +35°C° 0 mm 1 mps 716 mmHg 24%
16:00 +33°C° 0 mm 0 mps 716 mmHg 23%
17:00 +30°C° 0 mm 0 mps 716 mmHg 29%
18:00 +27°C° 0 mm 0 mps 716 mmHg 35%
19:00 +24°C° 0 mm 0 mps 716 mmHg 41%
20:00 +24°C° 0 mm 0 mps 716 mmHg 42%
21:00 +23°C° 0 mm 0 mps 716 mmHg 44%
22:00 +22°C° 0 mm 0 mps 717 mmHg 45%
23:00 +22°C° 0 mm 0 mps 716 mmHg 46%

24 June, Thursday

Time Temperature Precipitation Wind Pressure Humidity
00:00 +22°C° 0 mm 0 mps 716 mmHg 47%
01:00 +21°C° 0 mm 0 mps 716 mmHg 48%
02:00 +21°C° 0 mm 0 mps 716 mmHg 50%
03:00 +20°C° 0 mm 0 mps 716 mmHg 52%
04:00 +20°C° 0 mm 0 mps 717 mmHg 54%
05:00 +20°C° 0 mm 0 mps 717 mmHg 53%
06:00 +21°C° 0 mm 0 mps 718 mmHg 52%
07:00 +22°C° 0 mm 0 mps 718 mmHg 51%
08:00 +25°C° 0 mm 0 mps 719 mmHg 43%
09:00 +29°C° 0 mm 0 mps 719 mmHg 36%
10:00 +32°C° 0 mm 0 mps 719 mmHg 28%
11:00 +34°C° 0 mm 0 mps 719 mmHg 26%
12:00 +35°C° 0 mm 0 mps 718 mmHg 24%
13:00 +39°C° 0 mm 1 mps 717 mmHg 21%
14:00 +37°C° 0 mm 1 mps 717 mmHg 22%
15:00 +37°C° 0 mm 1 mps 716 mmHg 23%
16:00 +36°C° 0 mm 1 mps 716 mmHg 23%
17:00 +32°C° 0 mm 0 mps 716 mmHg 28%
18:00 +29°C° 0 mm 0 mps 716 mmHg 33%
19:00 +26°C° 0 mm 0 mps 716 mmHg 38%
20:00 +25°C° 0 mm 0 mps 716 mmHg 41%
21:00 +24°C° 0 mm 0 mps 716 mmHg 43%
22:00 +23°C° 0 mm 0 mps 717 mmHg 45%
23:00 +23°C° 0 mm 0 mps 716 mmHg 47%

25 June, Friday

Time Temperature Precipitation Wind Pressure Humidity
00:00 +22°C° 0 mm 0 mps 716 mmHg 50%
01:00 +21°C° 0 mm 0 mps 716 mmHg 52%
02:00 +21°C° 0 mm 0 mps 716 mmHg 53%
03:00 +20°C° 0 mm 0 mps 716 mmHg 55%
04:00 +20°C° 0 mm 0 mps 716 mmHg 57%
05:00 +21°C° 0 mm 0 mps 716 mmHg 56%
06:00 +22°C° 0 mm 0 mps 717 mmHg 54%
07:00 +23°C° 0 mm 0 mps 717 mmHg 53%
08:00 +26°C° 0 mm 0 mps 718 mmHg 45%
09:00 +30°C° 0 mm 0 mps 718 mmHg 37%
10:00 +35°C° 0 mm 1 mps 719 mmHg 30%
11:00 +35°C° 0 mm 0 mps 718 mmHg 27%
12:00 +36°C° 0 mm 0 mps 717 mmHg 25%
13:00 +37°C° 0 mm 0 mps 716 mmHg 22%
14:00 +37°C° 0 mm 0 mps 716 mmHg 23%
15:00 +36°C° 0 mm 0 mps 715 mmHg 24%
16:00 +35°C° 0 mm 0 mps 715 mmHg 25%
17:00 +33°C° 0 mm 0 mps 715 mmHg 30%
18:00 +30°C° 0 mm 0 mps 715 mmHg 35%
19:00 +28°C° 0 mm 0 mps 715 mmHg 40%
20:00 +27°C° 0 mm 0 mps 715 mmHg 43%
21:00 +26°C° 0 mm 0 mps 715 mmHg 46%
22:00 +25°C° 0 mm 0 mps 716 mmHg 49%
23:00 +24°C° 0 mm 0 mps 716 mmHg 51%
Show more

We Need Your Consent

Meteoprog and our Service Providers may store and access personal data such as cookies, device identifiers or other similar technologies on your device and process such data to personalise content and ads, as well as provide social media features and to analyse the traffic.

  • Store and/or access information on your device

    Cookies, device identifiers or other information can be stored or accessed on your device for the purposes indicated above.

  • Personalised ads and content, ad and content measurement, audience insights, and products development

    Ads and content can be personalised based on a profile. More data can be added to better personalise ads and content. Ad and content performance can be measured. Insights about the audience who saw the ads and content can be derived. Such data can be used to develop or improve user’s experience, systems and software.

By clicking ‘I Agree’ you will allow the use of indicated cookies, device identifiers, web beacons or other similar technologies. Your settings can be changed in the browser on your device.

For certain purposes, legitimate interests may be relied on, rather than consent. You can read more about this in our Privacy and Cookie Policy.